THORAD AGENA D DEB, 42511

Orbit data source: Space-Track

THORAD AGENA D DEB, 42511 is space debris in SSO originally from a launch on Wed, 08 Apr 1970 UTC launched from the Air Force Western Test Range (AFWTR). Debris objects in space refer to the collection of defunct objects orbiting the Earth. Examples of debris include non-operational satellites, rocket bodies, and fragments generated from explosions, collisions, or faulty payload assembly.

Loading next visibility...
Identifier
42511, 1970-025RR
Orbit
SSO
Country
Flag of USUS
Related business
Manufacturer
Unknown
Mission
Spacecraft
Bus & Motor
Unknown
Mass
Unknown
Launch date (UTC)
1970-04-08 (56 years ago)
Launch vehicle
Unknown
Launch site
Air Force Western Test Range (AFWTR)
Object type
Payload
Rocket body
Debris
Shape & HBR
Unknown shape, 0.1 m
Radar Cross Section
Medium (>0.1 m² and <1 m²)

Expand to show TLE details & history
Last TLE update: 5 hours ago

TLE from 5 hours ago
0 THORAD AGENA D DEB
1 42511U 70025RR  26257.14025620  .00000191  00000-0  72864-3 0  9990
2 42511 100.1651 144.1849 0454093 175.7678 184.7458 12.72842412594295
Epoch: 2026-09-14T03:21Z
TLE epoch observation values (Epoch: 2026-09-14T03:21:58.135Z)
Latitude
-0.00002°
Longitude
100.56785°
Altitude
1,723.863 km
Speed
6.855 km/s
True Right ascension
09h 36m 44s
True Declination
0° 00' 00"
Sunlit
Object was in daylight at epoch
Visualization orbit readout
Latitude
Unknown
Longitude
Unknown
Altitude
Unknown
Speed
Unknown
Apparent Right ascension
Unknown
Apparent Declination
Unknown
Sunlit
N/A
Visualization observer readout
Local Sidereal Time
01:14:52
Azimuth
Unknown
Elevation
Unknown
Doppler factor
Unknown
Orbital elements
Apogee altitude
1,719.542 km
Perigee altitude
1,016.066 km
Semi-major axis
7,745.941 km
Eccentricity
0.04541
Inclination
100.1651°
RAAN
144.1849°
Arg. of periapsis
175.7678°
True anomaly
184.33838°
Mean anomaly
184.7458°
Eccentric anomaly
184.53986°
Mean motion
3.1837 °/min
Orbital period
113.08 mins
BSTAR
0.00072864
Loading maneuver chart data...
Computing Atmospheric mass density...

Documentation

Showing up to 5 results
|